Location: B�di�
(14.6834°N, 3.1047°W)
Time: 04:31:19
(UTC+00:00)

Cosmos 1076 Rocket - Pass Details

Date: 24 January 2020
Orbit: 590 x 612 km, 82.5° (Epoch: 17 February)

Event Time Altitude Azimuth Distance (km) Brightness Sun altitude
Rises 18:58:22 0° 168° (SSE) 2,819 7.0 -12.6°
Reaches altitude 10° 19:00:41 10° 160° (SSE) 1,922 6.1 -13.1°
Maximum altitude 19:04:36 37° 92° (E) 927 4.0 -14.0°
Enters shadow 19:07:42 15° 30° (NNE) 1,623 5.3 -14.8°
